{"data":{"norad_id":87672,"intl_designator":"","name":"UNKNOWN","alt_names":[],"object_type":"UNKNOWN","status":"UNKNOWN","operator":null,"country":null,"launch_date":null,"launch_site_code":null,"launch_vehicle":null,"mission":null,"orbit_class":"UNKNOWN","rcs_meters":null,"size_class":null,"mass_kg":null,"dimensions":null,"purposes":[],"wikipedia_slug":null,"has_3d_model":false,"image_url":null,"decayed_at":null,"tle_current":{"epoch":"2026-09-16T07:00:32.027904Z","epoch_age_seconds":377898,"freshness":"STALE","line1":"1 87672U          26259.29203736  .00002120  00000+0  84382-3 0  9998","line2":"2 87672  70.8571 126.4242 0056067 208.7744 151.0290 14.28942635664094","mean_motion":14.28942635,"eccentricity":0.0056067,"inclination_deg":70.8571,"raan_deg":126.4242,"arg_perigee_deg":208.7744,"mean_anomaly_deg":151.029,"bstar":0.00084382,"rev_number":66409,"period_min":100.77381447856,"perigee_km":755.04822286177,"apogee_km":835.48647518914,"semimajor_km":7173.4043490255,"source":"CELESTRAK","updated_at":"2026-09-20T09:00:32.477900Z"}}}